Time,TemperatureF,DewpointF,PressureIn,WindDirection,WindDirectionDegrees,WindSpeedMPH,WindSpeedGustMPH,Humidity,HourlyPrecipIn,Conditions,Clouds,dailyrainin,SoftwareType,DateUTC
2013-09-23 00:14:00,61.0,59.0,29.86,WSW,255,0.0,0.0,93,0.00,,,0.00,,2013-09-23 04:14:00,
2013-09-23 00:24:00,61.0,59.0,29.87,WSW,256,0.0,0.0,93,0.00,,,0.00,,2013-09-23 04:24:00,
2013-09-23 00:54:00,60.0,58.0,29.87,WSW,256,0.0,0.0,94,0.00,,,0.00,,2013-09-23 04:54:00,
2013-09-23 01:23:00,60.0,58.0,29.88,WSW,255,0.0,0.0,94,0.00,,,0.00,,2013-09-23 05:23:00,
2013-09-23 01:53:00,59.0,58.0,29.87,WSW,255,0.0,0.0,95,0.00,,,0.00,,2013-09-23 05:53:00,
2013-09-23 02:22:00,59.0,58.0,29.88,WSW,256,0.0,0.0,95,0.00,,,0.00,,2013-09-23 06:22:00,
2013-09-23 02:52:00,60.0,59.0,29.88,WSW,256,0.0,0.0,96,0.00,,,0.00,,2013-09-23 06:52:00,
2013-09-23 03:22:00,60.0,59.0,29.88,WSW,256,0.0,0.0,95,0.00,,,0.00,,2013-09-23 07:22:00,
2013-09-23 03:52:00,60.0,59.0,29.88,WSW,256,0.0,0.0,95,0.00,,,0.00,,2013-09-23 07:52:00,
2013-09-23 04:23:00,60.0,59.0,29.88,WSW,256,0.0,0.0,95,0.00,,,0.00,,2013-09-23 08:23:00,
2013-09-23 04:52:00,60.0,59.0,29.89,WSW,256,0.0,0.0,96,0.00,,,0.00,,2013-09-23 08:52:00,
2013-09-23 05:21:00,60.0,59.0,29.89,WSW,256,0.0,0.0,95,0.00,,,0.00,,2013-09-23 09:21:00,
2013-09-23 05:53:00,60.0,59.0,29.89,WSW,256,0.0,0.0,95,0.00,,,0.00,,2013-09-23 09:53:00,
2013-09-23 06:23:00,60.0,59.0,29.91,WSW,256,0.0,0.0,95,0.00,,,0.00,,2013-09-23 10:23:00,
2013-09-23 06:52:00,60.0,59.0,29.92,WSW,256,0.0,0.0,96,0.00,,,0.00,,2013-09-23 10:52:00,
2013-09-23 07:22:00,60.0,59.0,29.94,WSW,256,0.0,0.0,96,0.00,,,0.00,,2013-09-23 11:22:00,
2013-09-23 07:52:00,60.0,59.0,29.95,WSW,256,0.0,0.0,96,0.00,,,0.00,,2013-09-23 11:52:00,
2013-09-23 08:22:00,60.0,59.0,29.96,WSW,256,0.0,0.0,96,0.00,,,0.00,,2013-09-23 12:22:00,
2013-09-23 08:52:00,60.0,59.0,29.97,WSW,256,0.0,0.0,96,0.00,,,0.00,,2013-09-23 12:52:00,
2013-09-23 09:22:00,61.0,60.0,29.97,WSW,256,0.0,0.0,96,0.00,,,0.00,,2013-09-23 13:22:00,
2013-09-23 09:52:00,63.0,60.0,29.98,WSW,257,0.0,1.0,91,0.00,,,0.00,,2013-09-23 13:52:00,
2013-09-23 10:22:00,65.0,61.0,29.98,NNE,30,0.0,0.0,87,0.00,,,0.00,,2013-09-23 14:22:00,
2013-09-23 10:52:00,67.0,62.0,29.98,ESE,103,0.0,0.0,84,0.00,,,0.00,,2013-09-23 14:52:00,
2013-09-23 11:22:00,68.0,61.0,29.98,SSE,167,0.0,4.0,79,0.00,,,0.00,,2013-09-23 15:22:00,
2013-09-23 11:54:00,70.0,61.0,29.98,NNE,24,1.0,6.0,74,0.00,,,0.00,,2013-09-23 15:54:00,
2013-09-23 12:24:00,72.0,61.0,29.98,NE,54,0.0,3.0,69,0.00,,,0.00,,2013-09-23 16:24:00,
2013-09-23 12:53:00,72.0,62.0,29.99,ENE,78,0.0,2.0,70,0.00,,,0.00,,2013-09-23 16:53:00,
2013-09-23 13:24:00,73.0,61.0,29.99,SSE,158,0.0,2.0,67,0.00,,,0.00,,2013-09-23 17:24:00,
2013-09-23 13:52:00,74.0,61.0,29.98,SE,128,0.0,1.0,64,0.00,,,0.00,,2013-09-23 17:52:00,
2013-09-23 14:22:00,74.0,61.0,29.98,ESE,105,0.0,4.0,65,0.00,,,0.00,,2013-09-23 18:22:00,
2013-09-23 14:52:00,75.0,62.0,29.97,ESE,115,0.0,1.0,63,0.00,,,0.00,,2013-09-23 18:52:00,
2013-09-23 15:22:00,76.0,62.0,29.96,ENE,63,0.0,2.0,61,0.00,,,0.00,,2013-09-23 19:22:00,
2013-09-23 15:53:00,76.0,62.0,29.95,NNE,19,0.0,0.0,61,0.00,,,0.00,,2013-09-23 19:53:00,
2013-09-23 16:22:00,75.0,60.0,29.95,North,10,0.0,3.0,60,0.00,,,0.00,,2013-09-23 20:22:00,
2013-09-23 16:52:00,76.0,62.0,29.95,ESE,107,0.0,0.0,63,0.00,,,0.00,,2013-09-23 20:52:00,
2013-09-23 17:23:00,76.0,61.0,29.95,NE,36,0.0,3.0,59,0.00,,,0.00,,2013-09-23 21:23:00,
2013-09-23 17:54:00,76.0,61.0,29.94,North,5,1.0,4.0,60,0.00,,,0.00,,2013-09-23 21:54:00,
2013-09-23 18:24:00,76.0,62.0,29.94,NNW,337,0.0,0.0,62,0.00,,,0.00,,2013-09-23 22:24:00,
2013-09-23 18:54:00,75.0,62.0,29.95,NNW,337,0.0,0.0,63,0.00,,,0.00,,2013-09-23 22:54:00,
2013-09-23 19:22:00,74.0,63.0,29.95,NNW,337,0.0,0.0,68,0.00,,,0.00,,2013-09-23 23:22:00,
2013-09-23 19:53:00,72.0,63.0,29.96,NNW,337,0.0,0.0,74,0.00,,,0.00,,2013-09-23 23:53:00,
2013-09-23 20:22:00,70.0,63.0,29.95,NNW,337,0.0,0.0,78,0.00,,,0.00,,2013-09-24 00:22:00,
2013-09-23 20:43:00,69.0,62.0,29.96,NNW,337,0.0,0.0,78,0.00,,,0.00,,2013-09-24 00:43:00,
2013-09-23 20:52:00,69.0,63.0,29.96,NNW,337,0.0,0.0,80,0.00,,,0.00,,2013-09-24 00:52:00,
2013-09-23 21:22:00,68.0,62.0,29.96,NNW,337,0.0,0.0,82,0.00,,,0.00,,2013-09-24 01:22:00,
2013-09-23 21:43:00,67.0,61.0,29.97,NNW,337,0.0,0.0,82,0.00,,,0.00,,2013-09-24 01:43:00,
2013-09-23 21:52:00,68.0,63.0,29.98,NNW,337,0.0,0.0,83,0.00,,,0.00,,2013-09-24 01:52:00,
2013-09-23 22:22:00,67.0,61.0,29.98,NNW,337,0.0,0.0,82,0.00,,,0.00,,2013-09-24 02:22:00,
2013-09-23 22:52:00,67.0,62.0,29.99,NNW,337,0.0,0.0,83,0.00,,,0.00,,2013-09-24 02:52:00,
2013-09-23 23:22:00,66.0,61.0,29.99,NNW,337,0.0,0.0,83,0.00,,,0.00,,2013-09-24 03:22:00,
2013-09-23 23:54:00,66.0,61.0,29.99,NNW,337,0.0,0.0,84,0.00,,,0.00,,2013-09-24 03:54:00,